Dewpoint
52 51 51 51 51 51 49 48 48 48 49 48 46 48 48 48 46 44 42 42 39 37 37 34 33 29 28 29 26 30 29 31 29 26 23 23 20 18 16 21 22 20 21 22 24 21 15 23 22 16 19 25 24 24
53 52 52 51 51 51 50 49 48 48 49 49 48 49 48 48 46 46 43 43 42 37 38 36 35 35 35 34 32 33 30 31 29 26 28 25 21 21 18 14 24 18 23 23 22 20 25 25 24 26 25 24 25 25
47 53 52 52 51 51 50 49 48 48 49 49 50 50 48 47 46 45 42 42 42 37 36 36 35 34 34 33 34 31 32 32 32 33 30 27 23 25 21 20 20 21 24 23 23 23 25 25 25 25 25 26 26 26
44 47 53 52 51 51 51 50 49 49 48 49 50 50 49 47 47 45 42 43 41 38 31 32 33 32 33 34 35 35 33 34 36 35 29 29 25 28 26 26 25 24 22 21 22 23 25 26 24 25 25 24 23 23
43 44 47 52 52 51 51 50 49 49 49 49 50 51 49 47 47 45 44 43 42 36 33 34 33 32 33 33 34 34 34 34 33 30 30 30 32 30 29 28 27 26 24 22 22 24 23 24 25 24 22 20 19 18
42 43 46 51 52 51 51 50 49 49 49 50 51 51 49 47 46 44 39 42 41 41 33 23 34 32 33 34 34 34 34 34 33 32 31 33 32 30 28 27 29 29 27 27 25 27 27 25 24 22 19 17 16 15
41 43 44 47 52 51 51 50 49 49 49 50 51 51 49 48 45 39 36 40 41 41 36 24 30 32 32 32 33 33 33 33 33 32 31 31 30 31 29 27 29 30 29 28 27 26 24 22 21 17 15 14 19 17
41 42 45 46 51 51 50 50 49 49 49 50 51 51 49 46 43 40 41 41 41 38 37 23 23 29 31 30 30 32 31 32 32 32 33 31 31 30 28 29 30 30 28 28 26 25 24 23 18 15 16 16 15 15
42 43 45 46 51 51 50 50 49 49 50 51 51 47 44 42 39 40 42 41 41 38 28 28 19 20 31 30 30 30 31 28 31 30 31 31 29 27 29 29 29 30 28 27 21 19 18 17 16 15 15 16 15 14
45 44 46 46 49 51 50 50 50 50 50 47 42 39 35 39 43 41 37 34 35 35 34 27 30 28 30 29 29 28 29 27 26 26 30 28 26 28 28 28 29 30 27 20 18 16 16 15 14 15 15 15 16 16
46 45 46 47 49 50 50 50 50 50 46 39 35 32 39 42 37 34 30 29 30 27 30 29 30 28 31 27 28 30 28 28 22 23 26 23 23 25 26 27 28 30 24 20 20 18 15 13 14 13 13 15 17 18
45 45 45 47 50 50 50 50 48 44 39 37 37 39 37 33 31 28 26 28 26 23 28 27 29 30 29 32 31 30 27 26 21 27 24 20 22 25 25 27 24 23 20 17 16 15 15 15 16 16 15 15 16 18
46 46 46 48 50 50 50 49 46 41 39 36 34 31 30 29 23 22 19 22 22 24 29 29 28 29 29 31 30 28 24 23 27 23 19 20 24 24 26 26 19 18 17 16 16 16 16 15 16 17 16 17 17 19
47 48 48 49 50 49 49 46 42 40 36 32 29 24 26 22 23 22 20 19 24 28 28 28 28 27 30 27 29 24 25 26 21 19 18 22 24 22 25 28 22 18 16 15 15 16 16 16 16 17 18 18 19 19
49 49 49 49 49 49 45 42 40 37 33 29 29 24 23 25 25 25 26 26 29 29 29 27 28 27 27 26 27 26 22 19 20 18 20 21 24 21 20 22 24 22 20 18 19 21 22 22 21 20 20 21 21 22
48 46 45 48 48 43 42 39 36 33 31 28 26 22 24 22 21 24 26 28 31 30 30 29 25 25 24 25 23 21 21 18 18 22 22 22 20 19 19 21 21 20 20 19 20 21 23 22 20 19 20 21 22 23
37 36 40 41 41 40 39 34 32 30 27 26 24 26 24 24 22 25 28 28 32 29 26 27 23 21 25 23 22 24 22 23 25 27 26 23 23 22 21 20 19 18 18 18 19 20 20 19 20 20 20 21 22 23
35 38 39 38 37 36 33 32 30 28 23 26 23 25 26 26 26 26 27 31 31 30 29 25 26 22 19 17 17 20 24 25 26 24 22 22 23 22 21 19 18 18 18 18 19 19 20 21 21 21 22 22 23 23
38 39 38 38 37 33 30 29 31 23 24 26 27 27 26 25 25 25 26 30 30 30 28 25 22 20 20 21 20 21 21 21 20 20 20 19 18 17 17 18 18 18 18 18 19 20 20 21 22 22 22 23 23 23
40 39 38 36 35 28 26 26 29 25 23 25 26 24 26 26 24 25 25 27 28 26 24 22 21 21 22 20 21 19 20 20 19 16 16 16 16 16 17 17 17 18 19 20 20 22 23 22 22 23 23 23 24 24
38 37 36 35 31 28 26 25 24 25 24 23 23 25 23 22 22 22 22 26 24 22 20 22 23 22 21 20 19 19 19 18 18 17 16 17 18 18 18 19 20 20 20 20 20 21 22 22 21 22 22 22 23 23
35 36 33 32 28 26 25 26 24 25 22 21 22 21 21 18 18 21 23 22 21 20 21 18 19 19 19 19 19 19 19 19 19 19 21 20 19 18 18 18 19 20 21 21 21 21 21 21 22 23 23 24 24 24
33 31 29 27 21 19 21 27 20 20 15 17 18 16 16 17 18 18 17 17 17 19 19 19 19 20 19 20 20 20 21 21 20 20 20 20 20 20 20 20 20 21 21 21 22 22 22 23 23 24 24 25 24 24
29 24 23 22 18 18 22 21 20 18 18 16 14 12 13 16 15 13 12 12 13 15 16 15 17 16 17 18 18 18 18 19 19 19 20 19 19 19 19 19 19 19 21 21 21 22 22 22 23 23 23 23 23 23
13 19 17 17 17 17 16 17 16 16 14 13 14 12 12 13 11 9 8 6 7 8 10 13 15 16 15 15 16 16 17 18 17 17 16 18 18 19 20 20 20 20 21 20 21 21 22 22 23 23 23 23 23 23
9 16 13 15 16 14 14 13 14 14 13 13 13 10 10 10 8 4 6 5 5 5 6 7 8 9 12 16 15 15 15 17 18 18 18 19 19 19 19 20 20 20 22 22 22 22 22 23 23 23 23 24 24 25
8 13 19 22 18 17 15 13 14 13 12 10 9 11 9 7 5 6 9 12 10 10 11 12 13 13 14 15 17 18 19 20 19 19 20 21 21 22 22 22 22 22 24 24 23 23 23 23 24 24 24 24 24 24
14 14 11 17 18 15 13 12 11 10 9 10 11 9 6 5 3 7 10 12 12 12 13 16 18 19 20 21 22 22 23 23 23 22 22 23 23 24 25 25 25 26 26 27 26 26 26 26 25 24 24 24 24 24
20 18 16 15 17 17 15 13 11 12 13 12 9 7 7 10 9 8 10 13 15 16 17 19 19 21 21 22 23 23 24 23 23 22 21 21 22 22 22 23 23 23 23 24 25 26 26 27 26 25 25 25 25 24
19 18 14 14 13 12 13 16 14 14 17 15 13 12 12 13 14 17 17 18 18 19 20 21 21 21 21 21 21 22 22 22 23 24 23 22 22 23 23 23 23 23 23 23 23 24 25 25 24 23 22 21 20 19
19 18 15 14 13 13 13 15 17 20 19 17 17 16 16 17 18 19 19 20 21 21 21 20 20 20 20 20 20 21 21 22 22 23 24 25 24 23 22 22 23 23 23 23 23 23 23 22 21 20 20 19 19 20
20 19 18 15 14 13 13 15 14 13 13 13 15 15 15 16 15 16 18 19 18 18 19 20 19 20 21 21 21 21 23 24 24 23 22 21 21 21 22 24 24 25 25 24 23 22 22 21 21 21 21 20 21 21
18 18 17 16 14 14 13 14 12 11 10 11 11 11 12 14 13 14 18 19 20 20 20 20 21 22 23 23 22 22 22 22 22 23 22 22 23 23 24 25 24 23 22 22 22 23 21 21 20 21 21 22 22 23
Wind_Speed
28 28 26 24 23 22 20 16 15 12 11 9 6 3 2 5 8 3 1 4 2 1 3 3 4 1 1 2 5 6 5 2 3 5 5 5 5 6 3 5 7 12 13 8 8 7 12 11 6 7 4 8 9 6
27 28 27 26 25 24 23 20 17 15 14 12 9 6 2 2 5 2 1 1 1 2 2 1 2 2 2 1 2 6 1 5 9 6 4 2 4 3 6 5 5 7 11 9 17 11 6 16 2 4 7 8 4 7
19 27 29 28 27 26 24 22 19 18 17 14 12 9 6 3 2 3 2 2 2 2 2 1 2 2 4 4 0 4 2 0 1 1 4 3 7 4 6 9 7 6 10 6 4 10 13 11 6 6 6 8 9 8
23 23 28 30 29 27 26 24 23 20 19 18 15 12 9 6 3 2 2 0 3 3 1 2 0 1 4 4 0 1 3 2 3 2 2 4 5 5 5 5 6 7 8 9 10 7 1 8 9 13 12 12 11 8
26 26 24 30 30 30 29 27 24 22 20 19 18 15 13 10 6 4 3 1 2 3 3 3 1 1 4 3 2 1 2 2 3 3 3 5 4 3 3 3 13 10 13 13 17 9 6 6 15 14 15 12 11 10
30 30 29 30 32 31 30 28 25 22 21 20 19 18 16 13 10 3 2 2 3 4 3 3 1 1 4 5 5 4 2 1 2 4 4 4 1 2 5 6 8 13 15 16 14 4 3 12 14 11 13 14 10 8
33 32 32 32 33 33 32 29 26 25 23 21 20 20 19 17 7 3 2 3 5 2 3 2 3 2 1 2 2 3 3 1 1 2 4 3 3 4 4 11 4 10 6 8 13 15 8 10 9 13 12 10 6 3
35 36 36 36 35 35 33 30 27 25 23 21 21 21 19 16 11 4 2 3 1 2 1 2 2 2 4 3 3 1 3 2 1 2 2 4 2 4 10 13 8 6 3 9 13 3 5 9 13 11 7 5 3 5
40 39 39 38 37 36 34 32 29 25 23 18 19 25 7 1 6 4 6 4 2 2 3 4 5 2 3 1 2 2 2 3 1 4 4 4 6 12 13 12 11 9 8 9 7 7 13 15 13 10 5 2 5 10
37 38 40 40 39 37 36 34 30 26 21 33 9 4 5 3 19 11 5 2 1 2 1 6 4 5 7 3 2 2 1 1 3 6 2 5 10 15 17 18 16 12 10 14 12 11 11 10 7 3 1 4 7 12
31 36 40 42 39 38 37 35 32 31 28 4 5 4 5 5 3 3 4 5 4 4 7 6 9 7 5 5 4 2 3 3 3 5 6 4 6 3 12 16 12 10 12 12 6 10 9 9 6 1 5 9 13 16
30 35 39 40 38 38 38 37 42 21 9 14 18 9 4 3 2 4 7 4 7 7 7 8 6 3 4 3 3 4 3 4 6 5 3 4 4 8 12 10 4 8 14 13 12 10 7 5 4 4 8 13 18 20
26 32 35 36 35 37 38 43 34 43 28 7 7 6 8 5 6 9 13 6 6 6 8 7 6 5 3 2 3 4 5 7 6 3 5 5 7 11 7 6 6 9 11 9 7 4 3 5 7 10 14 16 19 20
28 30 31 31 34 37 40 43 49 25 10 5 9 9 11 8 9 8 9 8 5 8 16 13 6 4 3 5 4 5 6 4 4 5 5 3 3 3 6 5 6 5 4 2 3 6 9 12 17 16 16 17 18 21
27 27 28 31 35 37 45 46 28 9 6 5 6 8 7 4 5 5 6 7 4 12 13 10 5 3 3 4 5 4 4 6 7 5 7 7 3 2 2 4 4 5 7 11 15 17 19 19 19 20 20 20 19 20
24 20 10 29 35 47 42 26 8 5 4 4 4 6 7 9 4 4 7 10 4 12 7 4 5 4 5 4 6 8 4 6 2 3 12 9 5 2 3 4 6 9 12 16 18 19 19 17 20 23 21 20 19 19
36 11 34 38 33 28 17 8 5 6 5 4 3 9 6 8 9 6 7 8 7 11 5 4 7 6 4 4 5 5 5 3 3 1 5 6 7 8 7 10 13 15 17 18 20 19 21 22 19 20 26 28 20 22
31 26 28 25 19 16 5 6 6 5 5 4 7 7 4 4 9 8 5 12 7 5 6 4 4 4 5 5 4 4 4 3 5 5 7 11 12 12 13 18 19 19 20 21 22 23 21 22 22 23 21 21 21 21
21 21 22 16 8 6 6 6 4 6 6 3 6 5 4 4 3 6 8 11 5 4 7 3 3 5 6 6 6 5 6 7 11 13 12 13 14 17 20 18 19 19 19 21 20 19 17 19 20 21 21 19 19 23
25 20 16 17 7 5 6 4 3 6 4 3 4 3 3 4 3 3 5 5 4 3 3 4 7 6 7 9 10 14 12 10 11 14 14 14 16 16 18 19 20 20 20 19 20 18 16 19 18 17 18 18 17 21
9 9 16 10 8 11 6 3 6 5 4 4 2 1 1 2 2 3 4 8 4 5 7 11 14 18 19 18 13 11 12 11 15 17 19 19 16 16 20 20 18 18 18 20 18 19 18 21 23 17 17 21 19 18
3 9 5 9 7 6 7 9 6 3 4 2 2 2 1 2 3 2 4 4 6 8 10 14 19 19 17 15 18 16 15 17 17 15 19 20 20 19 18 18 16 19 19 19 16 19 22 22 17 15 17 21 20 20
6 6 6 7 7 7 3 4 4 3 3 2 2 0 1 1 1 2 4 5 7 12 18 15 18 16 17 17 17 19 20 18 17 18 20 17 17 19 18 20 16 19 19 18 16 19 21 23 21 20 19 19 18 20
5 5 5 4 5 4 2 2 3 3 2 2 2 2 3 2 2 1 6 6 14 13 12 17 15 17 15 11 15 17 20 11 16 19 18 14 18 20 17 21 20 19 16 19 19 19 19 18 20 19 18 18 20 19
5 5 4 4 4 4 4 3 3 2 2 3 2 4 2 1 2 4 7 11 13 16 18 16 13 14 16 18 15 18 17 12 17 22 23 12 17 18 19 17 19 19 15 19 20 20 22 19 18 18 19 18 21 22
4 2 2 3 2 3 5 4 6 6 4 6 7 2 1 2 2 7 5 8 9 10 12 13 14 15 16 16 19 20 20 12 16 20 22 12 15 19 21 20 20 20 15 16 18 19 19 18 18 19 21 22 23 23
3 2 1 2 5 6 4 3 3 3 5 7 4 6 4 4 7 7 7 9 10 11 12 14 15 17 21 21 19 17 16 14 16 18 18 15 14 15 17 20 22 22 16 14 15 17 20 20 19 19 20 19 16 18
2 7 7 6 3 2 4 5 5 6 5 6 6 7 7 9 9 8 11 8 12 14 15 17 18 19 19 20 19 18 17 16 15 13 13 15 16 15 15 15 16 19 17 15 15 15 16 17 18 18 19 20 19 17
4 5 7 6 3 4 8 10 8 8 7 12 8 10 12 11 10 14 19 15 12 13 20 21 22 14 15 16 16 17 17 16 15 18 20 19 16 16 7 11 13 13 14 17 20 18 17 19 19 17 17 17 17 16
4 8 5 6 6 9 9 14 8 7 8 11 8 13 18 23 20 17 22 21 18 21 20 17 17 14 19 17 18 19 13 9 12 13 15 17 15 13 13 15 16 16 16 16 17 18 18 17 17 16 16 17 15 16
7 8 4 7 7 6 8 9 10 8 7 11 15 19 30 19 21 19 18 21 20 17 16 18 18 13 10 12 10 11 17 8 7 11 14 16 18 18 15 13 15 15 15 15 15 15 16 17 15 15 17 18 18 15
5 9 7 6 7 5 5 4 4 6 9 15 16 10 6 3 6 6 3 4 6 8 8 8 8 10 5 7 9 10 13 14 16 15 15 17 18 16 15 15 15 13 13 12 15 17 17 16 15 14 15 15 15 15
3 3 1 3 4 4 2 2 4 6 5 4 4 2 3 5 6 5 3 4 2 4 5 5 5 8 11 14 15 14 14 13 13 16 21 22 22 21 18 12 11 12 15 16 14 12 15 16 15 14 14 14 14 14
Wind_Direction
223 225 223 218 217 220 227 229 224 221 218 216 220 245 352 13 18 53 92 20 28 198 285 21 5 228 285 168 181 159 121 181 144 200 203 228 213 215 219 177 182 182 172 188 184 218 266 164 136 200 189 139 151 136
231 221 223 220 216 214 219 224 220 214 212 213 215 205 189 24 13 55 109 337 87 195 279 21 93 95 73 96 164 182 225 164 186 183 224 271 245 212 209 245 182 225 197 189 192 217 241 194 216 143 145 146 139 143
299 235 219 222 217 214 214 217 220 213 210 210 215 208 187 171 58 63 128 358 71 25 306 292 241 19 65 42 156 190 243 266 187 175 179 198 238 172 219 235 215 242 199 233 195 242 221 197 146 149 139 140 139 139
286 282 227 218 217 214 211 213 214 213 209 205 209 201 189 177 168 107 137 139 111 116 268 278 106 360 328 356 233 198 143 130 106 63 258 235 230 185 232 262 235 221 168 214 246 264 119 185 179 161 138 135 138 143
280 275 270 220 216 213 210 209 211 207 209 209 206 192 183 177 163 110 89 104 161 183 206 277 89 29 343 339 37 102 193 139 137 161 207 242 261 265 250 250 244 199 212 209 242 221 211 213 178 159 151 156 157 155
273 269 259 240 214 212 207 205 205 203 204 210 201 187 181 173 155 128 286 242 186 155 143 256 298 12 25 68 85 80 96 165 135 173 206 233 234 254 265 250 259 231 229 240 243 167 198 152 151 158 154 160 166 175
270 262 253 246 213 209 204 201 197 196 201 204 193 182 179 168 154 183 203 156 162 131 139 269 257 225 102 83 56 49 39 56 145 203 230 243 236 204 230 253 258 247 209 138 133 110 112 159 178 165 154 163 164 194
263 258 243 237 219 204 201 194 193 190 194 196 186 175 161 133 119 157 100 101 108 116 125 230 256 256 187 154 126 127 120 66 230 254 262 227 222 230 251 248 270 303 290 172 174 158 187 171 150 151 140 150 207 263
261 246 228 224 214 199 198 189 182 185 190 174 155 121 99 83 138 143 130 95 58 249 238 175 198 223 157 116 106 128 146 178 160 232 239 194 206 229 242 267 274 272 221 198 147 124 131 145 148 147 156 192 263 277
240 228 216 212 209 196 191 183 175 171 158 129 102 110 130 154 117 122 41 79 49 283 18 230 189 196 144 146 166 138 69 213 237 227 165 233 257 270 284 281 266 268 213 157 142 147 137 138 148 146 227 280 272 284
220 211 206 204 199 190 186 179 165 150 134 138 115 96 116 124 83 76 157 174 169 220 204 224 192 152 201 150 158 187 178 192 245 223 197 246 261 277 326 319 289 217 181 170 141 138 136 140 145 185 307 304 298 291
207 201 200 194 190 184 176 166 149 144 139 133 109 100 94 104 103 162 187 171 206 220 175 164 177 138 143 114 131 177 200 189 254 153 226 249 260 329 336 340 25 132 134 125 130 136 138 146 179 226 266 279 289 292
195 196 193 190 184 177 170 160 147 125 115 84 79 129 147 160 181 194 185 195 209 188 164 150 134 138 121 105 131 163 206 230 138 217 240 241 324 342 350 14 87 107 112 116 116 124 203 250 252 250 268 279 288 291
192 189 188 181 178 173 163 146 140 130 92 116 152 154 198 184 213 190 186 166 175 146 143 130 112 141 134 149 159 210 208 159 227 228 233 350 357 19 32 84 104 85 79 113 237 255 260 261 264 270 275 280 286 289
175 173 170 172 168 160 142 142 134 83 98 124 157 175 176 147 90 116 116 107 79 136 131 116 96 120 138 181 201 211 204 232 221 229 149 148 159 146 83 101 157 215 244 256 267 272 267 267 272 279 280 277 276 284
147 116 127 144 146 136 131 114 75 77 77 103 100 114 127 116 120 120 128 129 132 136 118 107 142 165 201 200 188 210 217 223 238 199 173 162 141 212 243 226 231 243 258 269 279 284 285 281 280 282 288 290 291 282
78 84 93 98 104 111 103 72 78 68 92 99 95 83 106 109 147 146 143 148 150 151 160 144 176 192 134 210 218 200 214 175 158 136 169 216 271 296 269 254 258 268 273 276 279 281 279 279 284 291 292 294 290 279
90 94 79 79 87 80 66 56 80 79 80 93 103 121 95 108 125 130 119 141 140 171 138 166 129 178 205 201 218 232 201 213 223 240 256 268 274 267 256 258 265 273 275 275 274 276 280 287 288 284 283 281 284 284
88 83 69 60 69 76 68 44 41 88 72 80 85 100 101 117 96 119 138 164 96 112 126 139 190 194 221 218 222 220 243 249 277 281 271 266 264 267 270 275 281 281 278 277 279 277 274 272 269 278 279 279 273 278
76 59 45 38 70 89 79 42 49 84 82 81 67 73 81 95 85 100 134 130 121 114 175 213 227 219 216 234 235 261 268 266 269 282 283 280 274 277 279 278 277 275 278 281 279 275 276 278 270 258 261 265 268 274
40 16 25 30 40 57 79 66 62 63 75 75 30 54 92 61 124 158 164 156 155 196 213 222 231 247 248 252 264 270 265 256 262 267 276 280 275 262 266 267 267 269 269 273 272 274 269 262 271 275 270 275 276 269
52 34 47 26 63 60 64 25 80 70 72 98 78 18 118 196 212 187 142 173 209 216 216 236 242 249 260 265 264 264 260 259 263 265 268 272 279 275 269 266 264 264 263 263 265 266 272 275 279 274 265 272 280 278
70 42 44 33 66 53 41 10 71 40 92 126 29 178 281 271 226 347 231 225 240 234 235 238 248 254 258 267 272 272 268 266 268 263 263 263 260 262 266 270 261 260 269 274 257 256 263 273 277 275 274 277 278 281
49 53 51 64 73 101 94 86 77 100 103 128 145 238 240 236 5 257 246 251 250 257 254 256 259 272 281 270 265 267 269 241 251 265 259 251 261 267 258 262 269 265 253 261 267 267 266 268 269 270 271 269 272 271
67 17 63 62 37 100 100 107 114 143 158 167 185 261 235 93 228 250 256 269 268 267 269 272 266 254 259 270 272 270 266 236 249 263 273 240 257 268 272 265 265 268 271 268 271 272 274 277 277 274 272 267 267 270
74 8 61 135 117 104 149 143 184 186 170 189 224 252 66 152 233 245 235 252 261 270 273 271 271 277 273 253 265 275 282 255 244 255 271 263 253 256 269 278 287 288 269 264 271 278 280 281 278 276 277 277 276 279
134 146 151 13 123 120 113 99 124 154 193 209 203 179 174 219 238 247 254 246 242 250 252 256 254 261 267 275 276 274 272 258 244 257 276 284 266 254 259 271 279 280 292 286 279 277 280 283 283 282 281 281 272 267
174 169 176 185 158 146 147 171 192 214 227 205 155 196 204 214 234 235 237 254 241 259 268 270 262 259 265 271 275 279 280 273 270 281 288 283 268 264 264 267 269 278 284 282 280 280 279 280 281 283 284 284 285 276
206 172 131 170 148 199 212 201 217 221 200 175 199 233 247 239 259 273 279 274 271 268 277 286 289 278 270 268 270 270 270 275 287 293 292 291 298 297 288 281 291 298 300 299 297 293 288 285 280 277 278 281 281 280
217 165 172 181 197 222 223 196 226 223 204 212 237 272 276 273 274 275 280 285 280 275 275 273 272 274 281 288 295 302 293 264 252 250 266 274 274 280 300 305 303 302 301 297 295 295 296 297 295 297 303 305 304 304
147 166 182 199 241 244 235 246 257 258 250 253 241 251 264 285 298 290 262 260 260 262 264 273 283 278 273 289 289 294 300 301 268 268 264 271 279 285 285 290 294 293 295 294 292 293 297 300 301 300 304 306 306 306
171 190 196 238 267 294 304 237 256 250 261 258 263 237 266 242 264 278 303 330 297 288 281 268 279 308 330 300 288 273 268 280 292 295 298 297 294 286 285 283 276 267 270 284 293 293 296 295 294 294 292 295 297 296
206 192 235 304 290 272 306 308 296 294 286 281 279 325 231 212 244 273 2 36 2 336 345 351 329 310 303 296 290 291 291 287 289 301 308 304 299 294 298 301 290 280 280 280 274 280 296 293 290 288 288 289 292 296